www.pogodaiklimat.ru

Погода и климат >> Архив погоды >> Германия >> Куксхавен


ПОГОДА в Куксхавене

  • Прогноз погоды в Куксхавене
  • Монитор погоды в Куксхавене

АРХИВ ПОГОДЫ в Куксхавене

Время (UTC), дата Ветер
(напр.,м/с)
 
Видим.   Явления Облачность Т
(С)
Тd
(С)
f
(%)
Тe
(С)
Тes
(С)
Комфортность P
(гПа)
Po
(гПа)
Тmin
(С)
Tmax
(С)
R
(мм)
R24
(мм)
S
(см)
10 14.08 З 7-12
{12}
9000 м ясно +17.4 +9.8 61 +16 +20 1016.1 1014.7
11 14.08 ЮЗ 4-9
{12}
10 км ясно +17.7 +8.8 56 +17 +26 1016.0 1014.6
12 14.08 З 6-10
{14}
8000 м {дождь, дымка} ясно +18.8 +8.3 50 +19 +24 1016.2 1014.8
13 14.08 З 4-9
{10}
5000 м дым ясно +19.8 +9.1 50 +21 +29 комфорт 1015.9 1014.5
14 14.08 ЮЗ 3 45 км в посл. час дождь {морось} 10/0 2000 м
[]
+18.5 +11.2 62 +19 +23 1015.6 1014.2
15 14.08 СЗ 3 50 км {дождь, морось} 10/10 1500 м
[]
+17.7 +11.2 66 +18 +18 1015.5 1014.1 0.0
16 14.08 З 2 50 км слаб. дождь {морось} 10/0 2000 м
[]
+17.5 +11.5 68 +18 +20 1015.5 1014.1
17 14.08 СЗ 2 55 км в посл. час дождь {морось} 10/10 1500 м
[]
+17.0 +11.3 69 +17 +17 1014.9 1013.5
18 14.08 ЮЗ 1 55 км в посл. час дождь {морось} 10/10 1500 м
[]
+17.1 +11.7 71 +18 +18 1014.7 1013.3 +11.8 +19.9 0.0
19 14.08 В 3 60 км 10/10 1500 м
[]
+17.5 +12.4 72 +18 +18 1014.2 1012.8
20 14.08 ЮВ 5-6
{6}
40 км 10/0 2000 м
[]
+17.2 +12.7 75 +17 +17 1013.9 1012.5
21 14.08 ЮВ 4 28 км 10/0 2000 м
[]
+16.9 +12.4 75 +16 +16 1013.4 1012.0
22 14.08 ЮВ 3 35 км 10/0
[]
+16.3 +11.3 72 +16 +16 1012.8 1011.4
23 14.08 ЮВ 4 35 км в посл. час дождь {морось} 10/0 2000 м
[]
+16.1 +11.0 72 +15 +15 1012.4 1011.0
00 15.08 Ю 2 21 км слаб. дождь {морось} 10/0
[]
+15.2 +11.9 81 +15 +15 1012.0 1010.6 0.1
01 15.08 ЮВ 2 22 км слаб. дождь {морось} 9/0 2000 м
[]
+15.0 +12.2 83 +15 +15 1011.1 1009.7
02 15.08 ЮВ 4 24 км в посл. час дождь {морось} 10/10 1380 м
[]
+15.6 +12.6 82 +15 +15 1009.8 1008.4
03 15.08 Ю 3 9000 м слаб. дождь {морось} 10/10 1300 м
[]
+14.2 +11.2 82 +13 +13 1009.2 1007.8 0.1
04 15.08 ЮВ 5-8
{9}
4700 м слаб. дождь {морось} 9/9 720 м
[]
+13.6 +12.8 95 +12 +12 1008.4 1007.0
05 15.08 Ю 5 11 км слаб. морось {дождь} 10/10 210 м
[]
+13.7 +13.2 97 +12 +12 1007.8 1006.4
06 15.08 Ю 3 7000 м слаб. морось {дождь} 9/9 100 м
[]
+13.9 +13.4 97 +13 +13 1007.2 1005.8 +13.5 +17.7 1
07 15.08 Ю 4 8000 м слаб. дождь {морось} 10/10 240 м
[]
+14.4 +13.9 97 +13 +13 1006.8 1005.4
08 15.08 Ю 3 3300 м морось {дождь} 10/10 180 м
[]
+14.9 +14.4 97 +14 +14 1006.5 1005.1
09 15.08 Ю 3 8000 м в посл. час дождь {морось} 10/10 210 м
[]
+15.9 +15.1 95 +15 +15 1006.3 1004.9 0.5
10 15.08 Ю 3 14 км 10/10 330 м
[]
+17.4 +15.8 90 +17 +17 1005.9 1004.5
11 15.08 Ю 3 11 км слаб. морось с дождем 10/10 300 м
[]
+17.3 +16.1 93 +17 +17 1005.9 1004.5
12 15.08 Ю 4 17 км в посл. час дождь {морось} 10/10 270 м
[]
+17.8 +16.5 92 +18 +18 1006.0 1004.6 0.0
13 15.08 ЮЗ 5 21 км в посл. час дождь {морось} 10/10 450 м
[]
+19.3 +16.7 85 +21 +21 комфорт 1006.0 1004.6
14 15.08 ЮЗ 5 26 км в посл. час дождь {морось} 10/10 450 м
[]
+19.4 +16.9 85 +21 +21 комфорт 1006.4 1005.0
15 15.08 З 8 20 км в посл. час дождь {морось} 9/9 480 м
[]
+19.1 +15.7 81 +20 +20 1007.0 1005.6 0.0
16 15.08 З 9 28 км 10/10 570 м
[]
+18.9 +14.6 76 +19 +19 1007.7 1006.3
17 15.08 З 8 35 км 5/5 600 м
[]
+19.2 +15.0 77 +20 +20 1008.0 1006.6
18 15.08 З 4 40 км {дождь, морось} 10/10 300 м
[]
+18.7 +15.2 80 +20 +20 1008.8 1007.4 +13.9 +19.6
19 15.08 З 5 35 км слаб. морось {дождь} 10/10 700 м
[]
+17.5 +15.2 86 +17 +17 1009.4 1008.0
20 15.08 З 4 35 км в посл. час морось 10/10 600 м
[]
+17.8 +15.4 86 +18 +18 1010.0 1008.6
21 15.08 ЮЗ 5 8000 м слаб. дождь {морось} 10/10 480 м
[]
+17.5 +15.3 87 +17 +17 1010.5 1009.1 0.1
22 15.08 ЮЗ 5 45 км в посл. час дождь {морось} 9/9 600 м
[]
+16.9 +15.6 92 +16 +16 1011.1 1009.7
23 15.08 З 5 45 км в посл. час морось 10/10 420 м
[]
+17.0 +15.5 91 +16 +16 1011.3 1009.9
00 16.08 З 5 65 км {дождь, морось} 6/6 300 м
[]
+17.2 +14.5 84 +17 +17 1011.5 1010.1 3
01 16.08 З 5 700 м сильн. дождь {морось} 9/9 400 м
[]
+16.6 +15.5 93 +16 +16 1011.8 1010.4
02 16.08 З 4 40 км в посл. час дождь {морось} 9/9 1500 м
[]
+16.7 +14.9 89 +16 +16 1011.9 1010.5
03 16.08 З 5 50 км {дождь, морось} 9/9 660 м
[]
+16.6 +14.3 86 +16 +16 1012.3 1010.9 2
04 16.08 З 4 35 км в посл. час дождь {морось} 9/9 630 м
[]
+15.9 +14.6 92 +15 +15 1012.6 1011.2
05 16.08 З 4-6
{6}
35 км 1/1 500 м
[]
+16.1 +14.1 88 +15 +16 1013.3 1011.9
06 16.08 З 6 40 км в посл. час дождь {морось} 6/0 2000 м
[]
+16.4 +12.8 79 +15 +16 1013.7 1012.3 +15.8 +18.7 5
07 16.08 З 5 15 км 5/5 1500 м
[]
+17.6 +12.2 71 +17 +18 1014.4 1013.0
08 16.08 З 6-9
{9}
35 км 1/1 870 м
[]
+18.3 +11.7 65 +18 +20 1014.8 1013.4
09 16.08 З 5 13 км 1/1 900 м
[]
+18.8 +11.8 64 +19 +24 1014.9 1013.5
10 16.08 З 6 13 км 5/5 930 м
[]
+18.7 +11.3 62 +19 +21 1015.1 1013.7
11 16.08 З 4 35 км 6/6 900 м
[]
+18.5 +11.6 64 +19 +22 1015.1 1013.7
12 16.08 З 4 35 км 9/9 930 м
[]
+18.8 +11.8 64 +19 +20 1014.9 1013.5
13 16.08 ЮЗ 2-4
{6}
35 км 9/0
[]
+20.0 +12.5 62 +22 +28 комфорт 1014.5 1013.1
14 16.08 СВ 1 70 км 10/10 1020 м
[]
+18.8 +12.7 68 +21 +21 комфорт 1014.1 1012.7
15 16.08 ЮЗ 3 70 км 10/10 1200 м
[]
+20.6 +10.9 54 +23 +23 комфорт 1013.7 1012.3
16 16.08 ЮЗ 4 35 км 10/10 1470 м
[]
+20.7 +10.9 53 +23 +23 комфорт 1013.1 1011.7
17 16.08 ЮЗ 3-5
{8}
30 км 8/8 1500 м
[]
+20.7 +10.9 53 +23 +23 комфорт 1012.8 1011.4
18 16.08 Ю 2 70 км 10/10 1500 м
[]
+19.9 +11.5 58 +22 +22 комфорт 1012.5 1011.1 +16.4 +21.7
19 16.08 ЮВ 2 50 км 10/0 2000 м
[]
+19.4 +12.3 63 +21 +21 комфорт 1012.1 1010.7
20 16.08 Ю 2 55 км 10/0
[]
+18.8 +12.2 65 +20 +20 1011.9 1010.5
21 16.08 Ю 2 45 км 10/0
[]
+18.3 +12.5 69 +19 +19 1011.4 1010.0
22 16.08 Ю 3-5
{5}
35 км 10/0
[]
+18.1 +12.6 70 +18 +18 1010.9 1009.5
23 16.08 Ю 3-5
{6}
30 км в посл. час дождь {морось} 10/0
[]
+17.9 +12.7 72 +18 +18 1010.3 1008.9
00 17.08 Ю 3 20 км слаб. дождь {морось} 10/0
[]
+17.8 +13.1 74 +18 +18 1009.5 1008.1 0.0
01 17.08 Ю 3 17 км слаб. дождь 10/10 1500 м
[]
+17.3 +13.3 77 +17 +17 1009.0 1007.6
02 17.08 Ю 3 12 км слаб. дождь {морось} 9/9 1500 м
[]
+16.8 +13.7 82 +17 +17 1008.1 1006.7
03 17.08 Ю 3 12 км слаб. дождь {морось} 10/10 1050 м
[]
+16.5 +14.1 86 +16 +16 1007.5 1006.1 0.4
04 17.08 ЮВ 4 14 км слаб. морось с дождем 9/9 1500 м
[]
+16.1 +14.2 88 +15 +15 1006.6 1005.2
05 17.08 Ю 3 17 км слаб. морось {дождь} 10/10 930 м
[]
+16.0 +14.2 89 +16 +16 1006.6 1005.2
06 17.08 Ю 4 5000 м слаб. морось с дождем 10/10 1000 м
[]
+16.0 +14.6 91 +15 +15 1006.2 1004.8 +15.8 +19.9 1
07 17.08 Ю 3 9000 м слаб. морось с дождем 10/10 750 м
[]
+16.3 +14.9 91 +16 +16 1006.1 1004.7
08 17.08 Ю 4 29 км в посл. час дождь {морось} 9/9 960 м
[]
+17.0 +15.3 90 +17 +17 1005.9 1004.5
09 17.08 Ю 5 28 км в посл. час морось {дождь} 10/10 540 м
[]
+18.2 +15.3 83 +18 +18 1005.6 1004.2 2
10 17.08 Ю 5 28 км 10/10 480 м
[]
+18.6 +15.4 82 +19 +19 1005.7 1004.3
11 17.08 Ю 5 6000 м морось {дождь} 10/10 270 м
[]
+18.0 +16.8 93 +18 +18 1006.0 1004.6
12 17.08 ЮЗ 5 30 км в посл. час морось {дождь} 10/10 420 м
[]
+18.8 +16.6 87 +20 +20 1006.0 1004.6 0.2
13 17.08 ЮЗ 5-11
{11}
30 км 9/9 500 м
[]
+19.4 +16.7 84 +21 +22 комфорт 1006.1 1004.7
14 17.08 Ю 4 15 км в посл. час дождь {морось} 10/10 480 м
[]
+19.4 +16.9 85 +21 +21 комфорт 1005.9 1004.5
15 17.08 Ю 5 21 км в посл. час дождь {морось} 9/9 540 м
[]
+20.6 +16.8 79 +24 +24 комфорт 1005.9 1004.5 0.3
16 17.08 Ю 4 35 км 6/6 630 м
[]
+21.0 +16.8 77 +25 +26 комфорт 1005.9 1004.5
17 17.08 ЮЗ 5-11
{12}
21 км 6/6 700 м
[]
+21.6 +16.7 74 +26 +26 душно 1005.8 1004.4
18 17.08 Ю 5 55 км {дождь, морось} 10/0 2000 м
[]
+20.5 +16.6 78 +24 +24 комфорт 1005.7 1004.3 +15.8 +21.6
19 17.08 Ю 4 16 км слаб. дождь {морось} 9/9 450 м
[]
+19.1 +17.0 88 +21 +21 комфорт 1005.3 1003.9
20 17.08 Ю 4 35 км слаб. морось {дождь} 10/10 210 м
[]
+17.5 +16.5 94 +17 +17 1005.8 1004.4
21 17.08 Ю 3 70 км в посл. час дождь {морось} 10/10 1260 м
[]
+17.1 +16.2 94 +17 +17 1006.0 1004.6 0.3
22 17.08 Ю 3 45 км 10/10 1110 м
[]
+17.0 +16.2 95 +17 +17 1006.0 1004.6
23 17.08 Ю 2 35 км 10/10 450 м
[]
+16.9 +16.4 97 +17 +17 1006.2 1004.8
00 18.08 ЮЗ 3 30 км {дождь, морось} 10/10 300 м
[]
+17.1 +16.4 96 +17 +17 1006.1 1004.7
01 18.08 ЮЗ 3 17 км 10/10 210 м
[]
+16.9 +16.3 96 +17 +17 1005.9 1004.5
02 18.08 ЮЗ 3 13 км 10/10 240 м
[]
+16.6 +16.1 97 +16 +16 1005.6 1004.2
03 18.08 ЮЗ 2 12 км 9/0
[]
+16.4 +16.0 97 +16 +16 1005.2 1003.8
04 18.08 Ю 2 9000 м 10/10 90 м
[]
+16.2 +15.9 98 +16 +16 1005.2 1003.8
05 18.08 Ю 2 11 км 10/10 90 м
[]
+16.0 +15.7 98 +16 +16 1005.2 1003.8
06 18.08 Ю 2 17 км 10/10 1500 м
[]
+16.0 +15.4 96 +16 +16 1005.0 1003.6 +16.0 +20.4 0.3
07 18.08 Ю 2-4
{4}
11 км слаб. дождь {морось} 9/0
[]
+16.3 +15.6 96 +16 +18 1004.8 1003.4
08 18.08 Ю 3 7000 м слаб. дождь 10/10 240 м
[]
+16.4 +15.7 96 +16 +16 1005.0 1003.6
09 18.08 Ю 4 13 км слаб. дождь {морось} 10/10 270 м
[]
+16.0 +14.6 91 +15 +15 1004.5 1003.1 1
10 18.08 ЮЗ 4 30 км в посл. час дождь {морось} 10/10 1200 м
[]
+16.4 +14.6 89 +16 +16 1004.8 1003.4
11 18.08 ЮЗ 3 30 км в посл. час дождь {морось} 10/10 270 м
[]
+15.9 +13.6 86 +15 +15 1004.5 1003.1
12 18.08 Ю 3 30 км слаб. морось {дождь} 10/10 330 м
[]
+15.9 +14.1 89 +15 +15 1004.0 1002.6 0.8
13 18.08 ЮЗ 4 29 км в посл. час дождь {морось} 10/10 1500 м
[]
+17.1 +13.4 79 +17 +17 1004.1 1002.7
14 18.08 ЮЗ 5 24 км 10/10 570 м
[]
+19.1 +14.3 74 +20 +20 1004.2 1002.8
15 18.08 ЮЗ 5 40 км {дождь, морось} 9/9 700 м
[]
+18.9 +13.4 70 +20 +20 1004.8 1003.4 0.0
16 18.08 ЮЗ 5 45 км 10/10 720 м
[]
+18.7 +13.7 73 +19 +19 1005.0 1003.6
17 18.08 З 4 8000 м слаб. дождь {морось} 10/10 570 м
[]
+17.0 +14.7 86 +17 +17 1005.8 1004.4
18 18.08 З 3 25 км в посл. час дождь {морось} 10/10 600 м
[]
+16.5 +15.2 92 +16 +16 1006.0 1004.6 +15.7 +19.4 0.3
19 18.08 ЮЗ 2 28 км в посл. час морось 9/9 1380 м
[]
+16.6 +15.1 91 +17 +17 1006.5 1005.1
20 18.08 Ю 2-5
{5}
24 км 3/3 800 м
[]
+16.1 +15.0 93 +16 +16 1007.3 1005.9
21 18.08 ЮЗ 4 40 км {морось} 6/6 960 м
[]
+16.5 +14.0 85 +16 +16 1007.7 1006.3 0.0
22 18.08 ЮЗ 3-6
{7}
27 км ясно +16.0 +14.2 89 +16 +16 1008.1 1006.7
23 18.08 ЮЗ 3-5
{6}
25 км ясно +15.7 +13.9 89 +15 +15 1008.1 1006.7
00 19.08 ЮЗ 4 21 км {морось} 9/9 1500 м
[]
+15.8 +14.2 90 +15 +15 1008.3 1006.9
01 19.08 ЮЗ 3-6
{7}
15 км ясно +15.3 +14.2 93 +15 +15 1008.6 1007.2
02 19.08 Ю 3-6
{7}
15 км ясно +15.2 +14.2 94 +14 +14 1008.9 1007.5
03 19.08 Ю 3 12 км 3/3 450 м
[]
+14.8 +14.1 96 +14 +14 1009.4 1008.0
04 19.08 Ю 4-7
{7}
22 км ясно +14.7 +13.7 94 +13 +13 1009.3 1007.9
05 19.08 Ю 4-8
{8}
30 км 1/0 2000 м
[]
+14.3 +12.9 91 +13 +13 1010.0 1008.6
06 19.08 Ю 4 21 км 3/3 1500 м
[]
+14.6 +12.7 88 +13 +14 1010.5 1009.1 +14.3 +16.7 0.0
07 19.08 ЮЗ 6-10
{10}
17 км 9/9 330 м
[]
+15.3 +13.0 86 +14 +14 1011.0 1009.6
08 19.08 ЮЗ 6 19 км 9/9 400 м
[]
+16.0 +13.3 84 +15 +15 1011.4 1010.0
09 19.08 ЮЗ 5 17 км 1/1 500 м
[]
+17.7 +13.2 75 +17 +21 1011.8 1010.4
10 19.08 ЮЗ 6 26 км 9/9 630 м
[]
+18.1 +12.8 71 +18 +18 1012.4 1011.0
11 19.08 ЮЗ 7 45 км 6/6 800 м
[]
+18.8 +12.6 67 +19 +20 1012.9 1011.5
12 19.08 ЮЗ 6 13 км 6/6 960 м
[]
+20.1 +11.9 59 +22 +23 комфорт 1013.3 1011.9
13 19.08 ЮЗ 7 16 км 5/5 1020 м
[]
+20.5 +12.1 59 +22 +24 комфорт 1013.9 1012.5
14 19.08 З 5 27 км в посл. час дождь {морось} 9/9 1300 м
[]
+18.3 +14.7 80 +18 +19 1014.7 1013.3
15 19.08 ЮЗ 5 17 км слаб. морось {дождь} 9/9 1440 м
[]
+18.0 +13.5 75 +18 +18 1014.8 1013.4 0.9
16 19.08 ЮЗ 4-8
{9}
29 км в посл. час дождь {морось} 4/0
[]
+20.1 +13.6 66 +22 +24 комфорт 1014.9 1013.5
17 19.08 З 4 30 км слаб. дождь {морось} 10/10 800 м
[]
+17.0 +12.2 73 +17 +17 1015.6 1014.2
18 19.08 З 2 40 км в посл. час дождь {морось} 9/9 1000 м
[]
+17.2 +14.0 81 +18 +18 1015.8 1014.4 +14.6 +21.1 0.1
19 19.08 ЮЗ 3 35 км в посл. час дождь {морось} 9/9 1470 м
[]
+15.8 +13.5 86 +15 +15 1016.3 1014.9
20 19.08 ЮЗ 2-3
{4}
35 км в посл. час дождь 6/0
[]
+15.6 +13.8 89 +15 +15 1016.5 1015.1
21 19.08 Ю 2-3
{9}
40 км {дождь, морось} ясно +15.3 +13.7 90 +15 +15 1016.6 1015.2 3
22 19.08 Ю 2-4
{4}
35 км ясно +14.4 +12.9 91 +14 +14 1016.9 1015.5
23 19.08 ЮЗ 3-5
{5}
45 км ясно +14.6 +12.0 84 +14 +14 1017.2 1015.8
00 20.08 ЮЗ 3 45 км {дождь, морось} 1/0 2000 м
[]
+14.4 +12.0 85 +13 +13 1017.3 1015.9
01 20.08 ЮЗ 3-5
{7}
35 км ясно +14.4 +12.2 87 +13 +13 1017.4 1016.0
02 20.08 ЮЗ 3-6
{6}
40 км 1/0 2000 м
[]
+14.1 +11.9 87 +13 +13 1017.6 1016.2
03 20.08 Ю 3 40 км 3/0
[]
+13.8 +11.8 88 +13 +13 1017.5 1016.1
04 20.08 Ю 3 35 км 8/0 2000 м
[]
+14.0 +11.9 87 +13 +13 1017.8 1016.4
05 20.08 Ю 3-5
{6}
30 км ясно +13.6 +12.0 90 +12 +13 1018.1 1016.7
06 20.08 ЮЗ 4 14 км ясно +14.5 +12.4 87 +13 +14 1018.5 1017.1 +13.6 +17.7 3
07 20.08 ЮЗ 5-9
{9}
14 км ясно +15.8 +13.3 85 +15 +16 1019.1 1017.7
08 20.08 ЮЗ 5-9
{9}
28 км 5/5 360 м
[]
+16.8 +13.6 81 +16 +18 1019.7 1018.3
09 20.08 ЮЗ 4 15 км 1/1 480 м
[]
+18.1 +13.9 76 +18 +23 1020.1 1018.7
10 20.08 ЮЗ 4-8
{10}
16 км 1/1 720 м
[]
+18.9 +13.4 70 +20 +26 1020.5 1019.1
11 20.08 ЮЗ 4 55 км 6/6 840 м
[]
+19.4 +12.1 63 +21 +24 комфорт 1020.6 1019.2
12 20.08 З 4 50 км 6/6 1500 м
[]
+19.5 +13.3 67 +21 +24 комфорт 1020.9 1019.5
13 20.08 З 5-8
{9}
30 км 6/0 2000 м
[]
+20.0 +12.3 61 +22 +25 комфорт 1021.1 1019.7
14 20.08 З 6-8
{10}
6000 м дым ясно +20.0 +10.2 53 +21 +24 комфорт 1021.5 1020.1
15 20.08 З 5 13 км 1/1 1500 м
[]
+19.7 +11.9 61 +21 +24 комфорт 1021.9 1020.5
16 20.08 З 4 35 км 4/4 1410 м
[]
+19.4 +10.6 57 +20 +22 1022.2 1020.8
17 20.08 ЮЗ 2 11 км слаб. дождь {морось} 9/9 1380 м
[]
+17.3 +12.9 75 +18 +18 1022.5 1021.1
18 20.08 ЮЗ 2 55 км в посл. час дождь {морось} 4/4 600 м
[]
+17.2 +13.7 80 +18 +18 1022.7 1021.3 +14.5 +20.7 0.6
19 20.08 ЮЗ 2-3
{4}
55 км 6/0
[]
+16.7 +13.4 81 +17 +17 1023.3 1021.9
20 20.08 З 2-3
{3}
50 км ясно +16.1 +13.1 82 +16 +16 1023.5 1022.1
21 20.08 ЮЗ 3-4
{4}
50 км ясно +15.5 +12.7 83 +15 +15 1023.9 1022.5
22 20.08 ЮЗ 3 50 км 4/4 960 м
[]
+15.2 +12.8 86 +14 +14 1024.2 1022.8
23 20.08 ЮЗ 4-6
{6}
45 км ясно +14.7 +12.5 87 +13 +13 1024.6 1023.2
00 21.08 З 2 40 км в посл. час морось 8/8 600 м
[]
+14.3 +12.7 90 +14 +14 1024.9 1023.4 0.0
01 21.08 ЮЗ 3-5
{5}
45 км 1/1 900 м
[]
+14.3 +12.6 90 +13 +13 1024.9 1023.4
02 21.08 ЮЗ 3-5
{5}
40 км ясно +14.4 +12.6 89 +13 +13 1025.3 1023.8
03 21.08 ЮЗ 3-4
{5}
40 км ясно +14.0 +12.5 91 +13 +13 1025.4 1023.9
04 21.08 ЮЗ 3-4
{4}
40 км 3/0 2000 м
[]
+13.7 +12.2 91 +12 +12 1025.7 1024.2
05 21.08 СЗ 3 1800 м дождь 10/10 540 м
[]
+14.7 +13.6 93 +14 +14 1026.3 1024.8
06 21.08 ЮЗ 3 60 км в посл. час дождь {морось} 9/9 600 м
[]
+13.9 +12.6 92 +13 +13 1026.7 1025.2 +13.7 +17.3 7
07 21.08 ЮЗ 3 35 км в посл. час дождь {морось} 10/10 840 м
[]
+14.7 +13.6 93 +14 +14 1027.3 1025.8
08 21.08 ЮЗ 3 50 км в посл. час дождь {морось} 10/10 1500 м
[]
+15.2 +13.3 88 +14 +14 1027.6 1026.1

 

Местоположение метеостанции Куксхавен (Германия): широта 53.87 долгота 8.70 высота над уровнем моря 4 м.

В архиве по умолчанию представлена погода в Куксхавене за последнюю неделю. Архивные данные за месяц целиком и за предыдущие месяцы, начиная с января 2011 года, Вы можете получить, выбрав интересующий диапазон дат из раскрывающегося списка и нажав кнопку "Ввод!".


*Определитесь, кто Вы:
робот инопланетянин человек

Внимание! Время в таблицах - всемирное. Для получения местного времени необходимо прибавить поправку, которая равна 1 ч.

Смотрите также архив погоды в соседних городах и на ближайших метеорологических станциях:

Погода в Нордхольце (Германия) (11 км)
Погода в Эльперсбюттеле (Германия) (31 км)
Погода на Маяке Alte Weser (Германия) (37 км)
Погода в Бремерхафене (Германия) (39 км)
Погода в Бремерфёрде (Германия) (51 км)
Погода в Санкт-Петер-Ординге (Германия) (52 км)
Погода в Итцехоэ (Германия) (58 км)
Погода в Гельголанде (Германия) (63 км)
Погода в Хоне (Германия) (74 км)
Погода на Базе ВВС Wittmundhaven (Германия) (77 км)

Пояснения к столбцам:

Ветер - указаны скорость ветра в м/с - средняя за 10 мин, порывы в срок и между сроками (в фигурных скобках) и направление, откуда дует ветер: С - северный, СВ - северо-восточный, В - восточный, ЮВ - юго-восточный, Ю - южный, ЮЗ - юго-западный, З - западный, СЗ - северо-западный.
Видимость - горизонтальная дальность видимости в метрах или километрах. При видимости от 1 до 10 км при отсутствии осадков обычно наблюдается дымка, при ухудшении видимости до 1 км и менее - туман. В сухую погоду видимость может ухудшаться дымом, пылью или мглою.
Явления - указаны атмосферные явления, наблюдавшиеся в срок или в последний час перед сроком; фигурными скобками обозначены явления, наблюдавшиеся между сроками (за 1-3 часа до срока); квадратными скобками обозначены град или гололедные отложения с указанием их диаметра в мм.
Облачность - указаны через наклонную черту общая и нижняя облачность в баллах и высота нижней границы облаков в метрах; квадратными скобками обозначены формы облаков: Ci - перистые, Cs - перисто-слоистые, Cc - перисто-кучевые, Ac - высококучевые, As - высокослоистые, Sc - слоисто-кучевые, Ns - слоисто-дождевые, Cu - кучевые, Cb - кучево-дождевые. Подробнее классификацию облаков см. в Атласе облаков (PDF).
T - Температура воздуха - температура, измеренная на высоте 2 м над землей.
Td - Температура точки росы - температура, при понижении до которой содержащийся в воздухе водяной пар достигнет насыщения.
f - Относительная влажность воздуха - влажноcть воздуха, измеренная на высоте 2 м над землей.
Te - Эффективная температура - температура, которую ощущает одетый по сезону человек в тени. Характеристика душности погоды. При расчете учитывается влияние влажности воздуха и скорости ветра на теплоощущения человека.
Tes - Эффективная температура на солнце - температура, которую ощущает человек, с поправкой на солнечный нагрев. Характеристика знойности погоды. Зависит от высоты солнца над горизонтом, облачности и скорости ветра. Ночью, в пасмурную погоду, а также при ветре 12 м/с и более поправка равна нулю.
P - Атмосферное давление - приведенное к уровню моря атмосферное давление.
Po - Атмосферное давление - измеренное на уровне метеостанции атмосферное давление.
Tmin - Минимальная температура - минимум температуры воздуха на высоте 2 м над землей.
Tmax - Максимальная температура - максимум температуры воздуха на высоте 2 м над землей.
R - Количество осадков - Количество выпавших осадков за период времени, мм. При наведении курсора мыши на число - период времени, за который выпало указанное количество осадков.
R24 - Количество осадков - Количество выпавших осадков за 24 часа, мм.
S - Снежный покров - Высота снежного покрова, см. При наведении курсора мыши на число - состояние снежного покрова и степень покрытия местности в баллах.